Location: Eppenbrunn
(49.1158°N, 7.5601°E)
Time: 11:06:30
(UTC+00:00)

Cosmos 2173 Rocket - Pass Details

Date: 09 April 2020
Orbit: 945 x 1000 km, 83.0° (Epoch: 24 May)

Event Time Altitude Azimuth Distance (km) Brightness Sun altitude
Rises 22:18:19 0° 353° (N) 3,628 8.1 -30.7°
Reaches altitude 10° 22:20:53 10° 358° (N) 2,681 7.1 -30.8°
Enters shadow 22:26:17 53° 53° (NE) 1,157 4.4 -31.1°
